Location: Casone le Fosse
(44.6547°N, 12.1103°E)
Time: 12:12:03
(UTC+00:00)

Cosmos 2219 - Pass Details

Date: 29 October 2020
Orbit: 832 x 862 km, 71.1° (Epoch: 27 November)

Event Time Altitude Azimuth Distance (km) Brightness Sun altitude
Rises 16:20:52 0° 338° (NNW) 3,446 6.5 -3.7°
Reaches altitude 10° 16:23:26 10° 344° (NNW) 2,508 5.7 -4.1°
Maximum altitude 16:29:00 48° 58° (ENE) 1,121 3.5 -5.1°
Drops below altitude 10° 16:34:32 10° 132° (SE) 2,493 5.3 -6.0°
Sets 16:37:04 0° 138° (SE) 3,424 6.1 -6.5°
